Weather History for Cut Bank, MT

Change the Weather History Date:

Thursday, February 21, 2013

  Actual Average Record
Temperature  
Mean Temperature 22 °F 25 °F  
Max Temperature 34 °F 36 °F 57 °F (1996)
Min Temperature 9 °F 14 °F -27 °F (1918)
Degree Days  
Heating Degree Days 43 40  
Month to date heating degree days 733 868  
Since 1 July heating degree days 5496 5786  
Cooling Degree Days 0 0  
Month to date cooling degree days 0 0  
Year to date cooling degree days 0 0  
Moisture  
Dew Point 15 °F    
Average Humidity 76    
Maximum Humidity 100    
Minimum Humidity 51    
Precipitation  
Precipitation 0.00 in 0.01 in 0.15 in (1914)
Month to date precipitation 0.31 0.15  
Year to date precipitation 0.73 0.35  
Snow  
Snow 0.00 in - - ()
Snow Depth 0.00 in    
Sea Level Pressure  
Sea Level Pressure 29.91 in    
Wind  
Wind Speed 10 mph (SW)    
Max Wind Speed 25 mph    
Max Gust Speed 29 mph    
Visibility 10 miles    
Events      
T = Trace of Precipitation, MM = Missing Value Source: NWS Daily Summary

Daily Weather History Graph

Daily Weather History Graph

Search for Another Location

Airport:

Trip Planner

Search our weather history database for the weather conditions in past years. The results will help you decide how hot, cold, wet, or windy it might be!

Date:

Astronomy

Feb. 21, 2013 Rise Set
Actual Time 7:25 AM MST 6:01 PM MST
Civil Twilight 6:53 AM MST 6:33 PM MST
Nautical Twilight 6:17 AM MST 7:09 PM MST
Astronomical Twilight 5:41 AM MST 7:45 PM MST
Moon 2:06 PM MST (2/21) 4:46 AM MST (2/21)
Length of Visible Light 11h 39m
Length of Day
10h 35m
Waxing Gibbous, 84% of the Moon is Illuminated
Feb 21
Waxing Gibbous
Feb 25
Full
Mar 4
Last Quarter
Mar 11
New
Mar 19
First Quarter

Hourly Weather History & Observations

Time (MST) Temp. Windchill Dew Point Humidity Pressure Visibility Wind Dir Wind Speed Gust Speed Precip Events Conditions
12:56 AM 15.1 °F 7.7 °F 12.9 °F 91% 29.96 in 10.0 mi SE 4.6 mph - N/A   Clear
1:56 AM 16.0 °F - 14.0 °F 92% 29.95 in 10.0 mi Calm Calm - N/A   Clear
2:56 AM 12.9 °F - 12.0 °F 96% 29.96 in 9.0 mi Calm Calm - N/A   Clear
3:56 AM 14.0 °F - 12.0 °F 92% 29.95 in 10.0 mi Calm Calm - N/A   Clear
4:56 AM 10.0 °F 3.6 °F 9.0 °F 95% 29.96 in 10.0 mi East 3.5 mph - N/A   Clear
5:56 AM 9.0 °F 2.4 °F 8.1 °F 96% 29.98 in 10.0 mi ESE 3.5 mph - N/A   Clear
6:56 AM 10.9 °F - 8.1 °F 88% 29.99 in 10.0 mi Calm Calm - N/A   Clear
7:56 AM 10.9 °F 2.9 °F 8.1 °F 88% 29.99 in 10.0 mi SSE 4.6 mph - N/A   Clear
8:56 AM 15.8 °F - 12.2 °F 86% 29.82 in 10.0 mi Calm Calm - N/A   Clear
9:56 AM 18.0 °F 11.1 °F 14.0 °F 84% 29.96 in 10.0 mi SE 4.6 mph - N/A   Clear
10:56 AM 28.0 °F 24.2 °F 19.9 °F 72% 29.93 in 10.0 mi Variable 3.5 mph - N/A   Clear
11:56 AM 32.0 °F 19.5 °F 17.1 °F 54% 29.91 in 10.0 mi WSW 21.9 mph - N/A   Clear
12:56 PM 34.0 °F 22.4 °F 18.0 °F 52% 29.90 in 10.0 mi WSW 20.7 mph - N/A   Clear
1:56 PM 34.0 °F 24.2 °F 17.1 °F 50% 29.89 in 10.0 mi West 15.0 mph - N/A   Partly Cloudy
2:56 PM 33.1 °F 21.5 °F 17.1 °F 52% 29.88 in 10.0 mi WSW 19.6 mph - N/A   Scattered Clouds
3:56 PM 33.1 °F 20.6 °F 18.0 °F 54% 29.88 in 10.0 mi WSW 23.0 mph - N/A   Clear
4:56 PM 30.9 °F 19.8 °F 19.0 °F 61% 29.89 in 10.0 mi WSW 16.1 mph - N/A   Partly Cloudy
5:56 PM 28.9 °F 16.9 °F 18.0 °F 64% 29.89 in 10.0 mi WSW 17.3 mph - N/A   Scattered Clouds
6:56 PM 27.0 °F 15.6 °F 18.0 °F 69% 29.89 in 10.0 mi WSW 13.8 mph - N/A   Clear
7:56 PM 27.0 °F 15.6 °F 17.1 °F 66% 29.89 in 10.0 mi West 13.8 mph - N/A   Clear
8:56 PM 28.0 °F 17.5 °F 18.0 °F 66% 29.87 in 10.0 mi WSW 12.7 mph - N/A   Overcast
9:56 PM 27.0 °F 15.6 °F 18.0 °F 69% 29.87 in 10.0 mi West 13.8 mph - N/A   Overcast
10:56 PM 26.1 °F 14.0 °F 17.1 °F 69% 29.86 in 10.0 mi West 15.0 mph - N/A   Clear
11:56 PM 21.9 °F 10.4 °F 15.1 °F 75% 29.86 in 10.0 mi West 11.5 mph - N/A   Clear